Location: Newark
(33.6439°N, 114.9881°W)
Time: 13:21:12
(UTC+00:00)

Courier 1B Rocket - Visible Passes

Search period start: 21 July 2019 00:00
Search period end: 31 July 2019 00:00
Orbit: 920 x 1202 km, 28.2° (Epoch: 20 July)

Date Brightness Start Highest point End Pass type
(mag) Time Alt. Az. Time Alt. Az. Time Alt. Az.
21 Jul 5.7 03:56:59 10° W 04:03:25 43° SSW 04:07:59 20° SE visible
21 Jul 6.9 05:51:16 10° WSW 05:54:20 19° SW 05:54:20 19° SW visible
22 Jul 6.2 04:49:45 10° WSW 04:55:32 28° SSW 04:56:47 27° S visible
23 Jul 6.0 03:48:31 10° W 03:54:33 35° SSW 03:59:17 17° SE visible
23 Jul 7.2 05:43:51 10° WSW 05:45:38 13° SW 05:45:38 13° SW visible
24 Jul 6.6 04:41:46 10° WSW 04:46:35 20° SSW 04:48:10 19° S visible
25 Jul 6.4 03:40:16 10° WSW 03:45:39 26° SSW 03:50:43 12° SSE visible
26 Jul 7.0 04:34:37 10° SW 04:37:37 13° SSW 04:39:41 12° S visible
27 Jul 6.8 03:32:23 10° WSW 03:36:44 18° SSW 03:41:16 10° SSE visible
29 Jul 7.2 03:25:35 10° SW 03:27:48 12° SSW 03:30:04 10° S visible
